This is the latest recevied weather packets stored in our database for station/object KO4ZGL-13. If no packets are shown the sender has not sent any weather packets the latest 10 day(s).
| Time | Temp. | Humidity | Pressure | Rain* | Wind** | Luminosity | Snow |
|---|---|---|---|---|---|---|---|
| 1787672519 | 30.56° C | 76% | 1018.7 hPa | 0 mm | - | 580 W/m² | - |
| 1787672213 | 30° C | 77% | 1018.5 hPa | 0 mm | - | 681 W/m² | - |
| 1787671912 | 30° C | 78% | 1018.5 hPa | 0 mm | - | 507 W/m² | - |
| 1787671609 | 30° C | 80% | 1018.7 hPa | 0 mm | - | 659 W/m² | - |
| 1787671308 | 29.44° C | 81% | 1018.7 hPa | 0 mm | - | 480 W/m² | - |
| 1787671003 | 29.44° C | 80% | 1018.4 hPa | 0 mm | - | 386 W/m² | - |
| 1787670699 | 30° C | 81% | 1018.2 hPa | 0 mm | - | 520 W/m² | - |
| 1787670399 | 29.44° C | 81% | 1018.4 hPa | 0 mm | - | 672 W/m² | - |
| 1787670099 | 28.89° C | 81% | 1018.3 hPa | 0 mm | - | 727 W/m² | - |
| 1787669798 | 28.89° C | 81% | 1018.4 hPa | 0 mm | - | 356 W/m² | - |
| 1787669493 | 28.33° C | 84% | 1018.3 hPa | 0 mm | - | 579 W/m² | - |
| 1787669189 | 28.33° C | 84% | 1018.4 hPa | 0 mm | - | 324 W/m² | - |
| 1787668885 | 28.89° C | 83% | 1018.4 hPa | 0 mm | - | 355 W/m² | - |
| 1787668581 | 28.89° C | 82% | 1018.4 hPa | 0 mm | - | 260 W/m² | - |
| 1787668276 | 28.89° C | 84% | 1018.1 hPa | 0 mm | - | 493 W/m² | - |
| 1787667971 | 28.33° C | 85% | 1018.2 hPa | 0 mm | - | 621 W/m² | - |
| 1787667666 | 27.78° C | 85% | 1018 hPa | 0 mm | - | 442 W/m² | - |
| 1787667362 | 27.78° C | 86% | 1017.8 hPa | 0 mm | - | 404 W/m² | - |
| 1787667056 | 27.78° C | 87% | 1018 hPa | 0 mm | - | 408 W/m² | - |
| 1787666752 | 27.78° C | 88% | 1017.9 hPa | 0 mm | - | 436 W/m² | - |
| 1787666451 | 27.22° C | 89% | 1018 hPa | 0 mm | - | 378 W/m² | - |
| 1787666147 | 27.22° C | 89% | 1017.7 hPa | 0 mm | - | 246 W/m² | - |
| 1787665842 | 27.22° C | 90% | 1017.7 hPa | 0 mm | - | 171 W/m² | - |
| 1787665538 | 26.67° C | 91% | 1017.4 hPa | 0 mm | - | 242 W/m² | - |
| 1787665232 | 26.67° C | 92% | 1017.5 hPa | 0 mm | - | 296 W/m² | - |
* Rain latest hour (hover to see other rain measurements)
** Current wind speed in m/s (hover to see current wind gust speed)